Location: Arezzo
(43.4170°N, 11.8830°E)
Time: 15:32:25
(UTC+01:00)

ISS - Visible Passes

Search period start: 25 March 2019 00:00
Search period end: 04 April 2019 01:00
Orbit: 408 x 411 km, 51.6° (Epoch: 25 March)

Date Brightness Start Highest point End Pass type
(mag) Time Alt. Az. Time Alt. Az. Time Alt. Az.
25 Mar -1.9 20:17:29 10° WNW 20:20:22 27° NNW 20:21:38 21° NNE visible
26 Mar -2.4 19:26:31 10° W 19:29:36 36° NNW 19:32:42 10° NE visible
26 Mar -1.1 21:04:23 10° NW 21:06:02 18° NNW 21:06:02 18° NNW visible
27 Mar -1.5 20:13:25 10° WNW 20:16:00 21° N 20:17:33 15° NNE visible
28 Mar -1.8 19:22:23 10° WNW 19:25:09 24° NNW 19:27:56 10° NE visible
28 Mar -1.3 20:59:59 10° NW 21:01:45 19° NNW 21:01:45 19° NNW visible
29 Mar -1.5 20:09:10 10° NW 20:11:38 19° N 20:13:09 15° NE visible
29 Mar -0.1 21:45:53 10° NW 21:45:54 10° NW 21:45:54 10° NW visible
30 Mar -1.6 19:18:14 10° NW 19:20:44 20° N 19:23:15 10° NE visible
30 Mar -1.6 20:55:17 10° NW 20:57:16 22° N 20:57:16 22° N visible
31 Mar -1.8 21:04:36 10° NW 21:07:14 21° N 21:08:35 17° NE visible
31 Mar -0.4 22:41:01 10° NW 22:41:21 12° NW 22:41:21 12° NW visible
01 Apr -1.6 20:13:48 10° NW 20:16:19 19° N 20:18:49 10° NE visible
01 Apr -2.2 21:50:24 10° NW 21:52:40 32° NNW 21:52:40 32° NNW visible
02 Apr -2.3 20:59:45 10° NW 21:02:42 28° NNE 21:03:59 22° ENE visible
02 Apr -0.6 22:36:13 10° WNW 22:36:44 14° WNW 22:36:44 14° WNW visible
03 Apr -2.0 20:09:05 10° NW 20:11:48 23° NNE 20:14:32 10° ENE visible
03 Apr -3.0 21:45:28 10° NW 21:48:04 51° NW 21:48:04 51° NW visible
